This is the latest recevied weather packets stored in our database for station/object KC1HBM. If no packets are shown the sender has not sent any weather packets the latest 10 day(s).
| Time | Temp. | Humidity | Pressure | Rain* | Wind** | Luminosity | Snow |
|---|---|---|---|---|---|---|---|
| 1777959876 | 13.89° C | 65% | 1006.5 hPa | 0 mm | - | 0 W/m² | - |
| 1777959573 | 13.89° C | 65% | 1006.3 hPa | 0 mm | - | 0 W/m² | - |
| 1777959270 | 13.89° C | 64% | 1006.5 hPa | 0 mm | - | 0 W/m² | - |
| 1777958967 | 14.44° C | 62% | 1006.5 hPa | 0 mm | - | 0 W/m² | - |
| 1777958664 | 15° C | 61% | 1006.6 hPa | 0 mm | - | 0 W/m² | - |
| 1777958361 | 15° C | 59% | 1006.4 hPa | 0 mm | - | 0 W/m² | - |
| 1777958058 | 15° C | 59% | 1006.5 hPa | 0 mm | - | 0 W/m² | - |
| 1777957756 | 15° C | 60% | 1006.6 hPa | 0 mm | - | 0 W/m² | - |
| 1777957455 | 15° C | 60% | 1006.3 hPa | 0 mm | - | 0 W/m² | - |
| 1777957151 | 15° C | 60% | 1006.3 hPa | 0 mm | - | 0 W/m² | - |
| 1777956848 | 15° C | 60% | 1006.4 hPa | 0 mm | - | 0 W/m² | - |
| 1777956545 | 15.56° C | 59% | 1006.3 hPa | 0 mm | - | 0 W/m² | - |
| 1777956242 | 15° C | 60% | 1006.3 hPa | 0 mm | - | 0 W/m² | - |
| 1777955938 | 15° C | 60% | 1006.2 hPa | 0 mm | - | 0 W/m² | - |
| 1777955634 | 15° C | 60% | 1006.2 hPa | 0 mm | - | 0 W/m² | - |
| 1777955330 | 15° C | 60% | 1006.3 hPa | 0 mm | - | 0 W/m² | - |
| 1777955028 | 15.56° C | 61% | 1006.1 hPa | 0 mm | - | 0 W/m² | - |
| 1777954724 | 15.56° C | 58% | 1005.9 hPa | 0 mm | - | 0 W/m² | - |
| 1777954422 | 15.56° C | 59% | 1006.1 hPa | 0 mm | - | 0 W/m² | - |
| 1777954119 | 16.11° C | 56% | 1006.1 hPa | 0 mm | - | 0 W/m² | - |
| 1777953817 | 16.11° C | 56% | 1005.9 hPa | 0 mm | - | 0 W/m² | - |
| 1777953513 | 16.11° C | 56% | 1005.7 hPa | 0 mm | - | 0 W/m² | - |
| 1777953209 | 16.11° C | 56% | 1005.8 hPa | 0 mm | - | 0 W/m² | - |
| 1777952906 | 15.56° C | 58% | 1005.9 hPa | 0 mm | - | 0 W/m² | - |
| 1777952603 | 15.56° C | 58% | 1005.9 hPa | 0 mm | - | 0 W/m² | - |
* Rain latest hour (hover to see other rain measurements)
** Current wind speed in m/s (hover to see current wind gust speed)